TimeCDT,TemperatureF,Dew PointF,Humidity,Sea Level PressureIn,VisibilityMPH,Wind Direction,Wind SpeedMPH,Gust SpeedMPH,PrecipitationIn,Events,Conditions,WindDirDegrees,DateUTC
12:15 AM,53.6,50.0,88,30.13,10.0,Calm,Calm,-,N/A,,Clear,0,2013-09-29 05:15:00
12:55 AM,53.6,50.0,88,30.12,10.0,Calm,Calm,-,N/A,,Clear,0,2013-09-29 05:55:00
1:15 AM,51.8,50.0,94,30.12,10.0,Calm,Calm,-,N/A,,Clear,0,2013-09-29 06:15:00
1:35 AM,51.8,51.8,100,30.12,10.0,WNW,3.5,-,N/A,,Clear,300,2013-09-29 06:35:00
1:55 AM,51.8,51.8,100,30.12,10.0,Calm,Calm,-,N/A,,Clear,0,2013-09-29 06:55:00
2:15 AM,51.8,50.0,94,30.12,10.0,Calm,Calm,-,N/A,,Clear,0,2013-09-29 07:15:00
2:35 AM,51.8,50.0,94,30.11,10.0,NW,4.6,-,N/A,,Clear,310,2013-09-29 07:35:00
2:55 AM,51.8,50.0,94,30.11,10.0,Calm,Calm,-,N/A,,Clear,0,2013-09-29 07:55:00
3:15 AM,50.0,50.0,100,30.10,10.0,NW,3.5,-,N/A,,Clear,320,2013-09-29 08:15:00
3:35 AM,51.8,50.0,94,30.10,10.0,NW,4.6,-,N/A,,Clear,310,2013-09-29 08:35:00
3:55 AM,50.0,48.2,94,30.10,10.0,WNW,3.5,-,N/A,,Clear,300,2013-09-29 08:55:00
4:15 AM,50.0,50.0,100,30.09,10.0,WNW,5.8,-,N/A,,Clear,300,2013-09-29 09:15:00
4:35 AM,50.0,50.0,100,30.10,10.0,WNW,4.6,-,N/A,,Clear,290,2013-09-29 09:35:00
5:15 AM,48.2,48.2,100,30.10,10.0,WNW,5.8,-,N/A,,Clear,300,2013-09-29 10:15:00
5:35 AM,50.0,50.0,100,30.11,10.0,NW,5.8,-,N/A,,Clear,310,2013-09-29 10:35:00
5:55 AM,46.4,46.4,100,30.11,10.0,Calm,Calm,-,N/A,,Clear,0,2013-09-29 10:55:00
6:15 AM,48.2,48.2,100,30.11,10.0,Calm,Calm,-,N/A,,Clear,0,2013-09-29 11:15:00
6:35 AM,50.0,48.2,94,30.12,10.0,WNW,3.5,-,N/A,,Clear,300,2013-09-29 11:35:00
6:55 AM,48.2,48.2,100,30.12,10.0,Calm,Calm,-,N/A,,Clear,0,2013-09-29 11:55:00
7:15 AM,48.2,48.2,100,30.12,10.0,WNW,3.5,-,N/A,,Clear,300,2013-09-29 12:15:00
7:35 AM,46.4,46.4,100,30.12,10.0,Calm,Calm,-,N/A,,Clear,0,2013-09-29 12:35:00
8:15 AM,51.8,50.0,94,30.12,10.0,Calm,Calm,-,N/A,,Clear,0,2013-09-29 13:15:00
8:35 AM,53.6,51.8,94,30.13,10.0,Calm,Calm,-,N/A,,Clear,0,2013-09-29 13:35:00
8:55 AM,55.4,53.6,94,30.12,10.0,NNW,4.6,-,N/A,,Clear,340,2013-09-29 13:55:00
9:15 AM,59.0,55.4,88,30.12,10.0,North,3.5,-,N/A,,Clear,350,2013-09-29 14:15:00
9:35 AM,60.8,53.6,77,30.12,10.0,North,4.6,-,N/A,,Clear,360,2013-09-29 14:35:00
9:55 AM,62.6,53.6,72,30.12,10.0,North,6.9,-,N/A,,Clear,10,2013-09-29 14:55:00
10:35 AM,66.2,51.8,60,30.12,10.0,NNE,6.9,-,N/A,,Clear,20,2013-09-29 15:35:00
10:55 AM,68.0,50.0,52,30.12,10.0,North,5.8,-,N/A,,Clear,360,2013-09-29 15:55:00
11:15 AM,68.0,48.2,49,30.11,7.0,North,6.9,-,N/A,,Clear,360,2013-09-29 16:15:00
11:35 AM,68.0,48.2,49,30.11,10.0,NE,3.5,-,N/A,,Clear,40,2013-09-29 16:35:00
11:55 AM,69.8,46.4,43,30.11,10.0,North,3.5,-,N/A,,Clear,360,2013-09-29 16:55:00
12:15 PM,69.8,46.4,43,30.10,10.0,NNE,9.2,-,N/A,,Clear,30,2013-09-29 17:15:00
12:35 PM,71.6,46.4,41,30.09,10.0,NNE,5.8,-,N/A,,Clear,20,2013-09-29 17:35:00
12:55 PM,71.6,46.4,41,30.09,10.0,North,8.1,-,N/A,,Clear,10,2013-09-29 17:55:00
1:15 PM,71.6,46.4,41,30.08,7.0,NE,6.9,-,N/A,,Clear,50,2013-09-29 18:15:00
1:35 PM,71.6,46.4,41,30.06,10.0,Calm,Calm,-,N/A,,Clear,0,2013-09-29 18:35:00
1:55 PM,73.4,48.2,41,30.05,10.0,North,5.8,-,N/A,,Clear,350,2013-09-29 18:55:00
2:15 PM,73.4,48.2,41,30.04,10.0,NE,3.5,-,N/A,,Clear,40,2013-09-29 19:15:00
2:55 PM,73.4,48.2,41,30.01,10.0,WNW,8.1,-,N/A,,Clear,300,2013-09-29 19:55:00
3:15 PM,73.4,48.2,41,30.00,10.0,Calm,Calm,-,N/A,,Clear,0,2013-09-29 20:15:00
3:35 PM,75.2,48.2,38,30.00,10.0,North,4.6,-,N/A,,Clear,350,2013-09-29 20:35:00
3:55 PM,75.2,48.2,38,29.99,10.0,Calm,Calm,-,N/A,,Clear,0,2013-09-29 20:55:00
4:15 PM,75.2,48.2,38,29.99,7.0,NNE,5.8,-,N/A,,Clear,30,2013-09-29 21:15:00
4:35 PM,73.4,46.4,38,29.98,7.0,Calm,Calm,-,N/A,,Clear,0,2013-09-29 21:35:00
4:55 PM,73.4,46.4,38,29.98,4.0,Calm,Calm,-,N/A,,Haze,0,2013-09-29 21:55:00
5:15 PM,73.4,46.4,38,29.97,3.0,Calm,Calm,-,N/A,,Haze,0,2013-09-29 22:15:00
5:35 PM,73.4,46.4,38,29.97,10.0,Calm,Calm,-,N/A,,Clear,0,2013-09-29 22:35:00
5:55 PM,73.4,46.4,38,29.97,10.0,Calm,Calm,-,N/A,,Clear,0,2013-09-29 22:55:00
6:15 PM,73.4,46.4,38,29.96,7.0,Calm,Calm,-,N/A,,Clear,0,2013-09-29 23:15:00
6:35 PM,71.6,50.0,46,29.96,7.0,East,4.6,-,N/A,,Clear,80,2013-09-29 23:35:00
6:55 PM,69.8,50.0,49,29.96,2.5,East,4.6,-,N/A,,Haze,90,2013-09-29 23:55:00
7:15 PM,69.8,50.0,49,29.96,2.0,Calm,Calm,-,N/A,,Haze,0,2013-09-30 00:15:00
7:35 PM,68.0,50.0,52,29.96,3.0,ESE,3.5,-,N/A,,Haze,110,2013-09-30 00:35:00
7:55 PM,64.4,51.8,64,29.96,10.0,Calm,Calm,-,N/A,,Clear,0,2013-09-30 00:55:00
8:15 PM,66.2,50.0,56,29.97,0.5,East,3.5,-,N/A,,Haze,100,2013-09-30 01:15:00
8:35 PM,62.6,50.0,63,29.97,2.5,Calm,Calm,-,N/A,,Haze,0,2013-09-30 01:35:00
9:15 PM,62.6,51.8,68,29.97,10.0,Calm,Calm,-,N/A,,Clear,0,2013-09-30 02:15:00
9:35 PM,62.6,51.8,68,29.97,1.2,Calm,Calm,-,N/A,,Haze,0,2013-09-30 02:35:00
9:55 PM,60.8,51.8,72,29.98,10.0,Calm,Calm,-,N/A,,Clear,0,2013-09-30 02:55:00
10:15 PM,60.8,51.8,72,29.97,10.0,Calm,Calm,-,N/A,,Clear,0,2013-09-30 03:15:00
10:35 PM,59.0,51.8,77,29.98,10.0,Calm,Calm,-,N/A,,Clear,0,2013-09-30 03:35:00
10:55 PM,59.0,51.8,77,29.98,5.0,Calm,Calm,-,N/A,,Haze,0,2013-09-30 03:55:00
11:15 PM,55.4,53.6,94,29.97,10.0,Calm,Calm,-,N/A,,Clear,0,2013-09-30 04:15:00
11:35 PM,55.4,53.6,94,29.97,10.0,Calm,Calm,-,N/A,,Clear,0,2013-09-30 04:35:00
11:55 PM,55.4,53.6,94,29.97,10.0,Calm,Calm,-,N/A,,Clear,0,2013-09-30 04:55:00